Zurück zum Katalog

STARLINK-35049

AktivKommunikationSSO
NORAD 65444·PAYLOAD·🇺🇸 United States

Gestartet Sep 3, 2025 von Vandenberg Space Force Base

Loading…

Nächste Überflüge (nächste 24 Stunden)

TLE

AktuellSource: CelesTrak SupGP

Epoche: Sep 15, 2026, 03:19 UTC

1 65444C 25194L   26258.13868056 -.00033132  00000+0 -10285-2 0  2583
2 65444  97.2846 107.8552 0001764  92.5500 356.2137 15.33455079    18

Verfolge STARLINK-35049 in Echtzeit mit AllMySat

Download on the App Store